La Junta, CO

5:49 PM MDT on April 26, 2018 (GMT -0600)
La Junta Municipal

Weather History for KLHX - January, 2013

Change the Weather History Date:

Monday, January 14, 2013

  Actual Average Record
Temperature  
Mean Temperature 18 °F 31 °F  
Max Temperature 28 °F 45 °F 69 °F (1969)
Min Temperature 7 °F 17 °F -12 °F (1972)
Degree Days  
Heating Degree Days 47 34  
Month to date heating degree days 533 480  
Since 1 July heating degree days 2475 2683  
Cooling Degree Days 0 0  
Month to date cooling degree days 0 0  
Year to date cooling degree days 0 0  
Moisture  
Dew Point 8 °F    
Average Humidity 67    
Maximum Humidity 88    
Minimum Humidity 46    
Precipitation  
Precipitation T in 0.01 in 0.38 in (1960)
Month to date precipitation T 0.13  
Year to date precipitation T 0.13  
Sea Level Pressure  
Sea Level Pressure 30.20 in    
Wind  
Wind Speed 6 mph (SW)    
Max Wind Speed 17 mph    
Max Gust Speed 20 mph    
Visibility 9 miles    
Events Snow    
T = Trace of Precipitation, MM = Missing Value Source: NWS Daily Summary

Daily Weather History Graph

Daily Weather History Graph

Search for Another Location

Airport or City:

Astronomy

Jan. 14, 2013 Rise Set
Actual Time 7:09 AM MST 4:57 PM MST
Civil Twilight 6:40 AM MST 5:26 PM MST
Nautical Twilight 6:07 AM MST 5:58 PM MST
Astronomical Twilight 5:36 AM MST 6:30 PM MST
Moon 8:47 AM MST (1/14) 8:41 PM MST (1/14)
Length of Visible Light 10h 46m
Length of Day
9h 48m
Waxing Crescent, 12% of the Moon is Illuminated
Jan 14
Waxing Crescent
Jan 18
First Quarter
Jan 26
Full
Feb 3
Last Quarter
Feb 10
New

Hourly Weather History & Observations

Time (MST) Temp. Windchill Dew Point Humidity Pressure Visibility Wind Dir Wind Speed Gust Speed Precip Events Conditions
12:41 AM 15.8 °F 1.4 °F 8.6 °F 73% 30.10 in 3.0 mi ESE 13.8 mph - 0.00 in Snow Light Snow
12:51 AM 15.8 °F 0.9 °F 8.6 °F 73% 30.10 in 2.5 mi East 15.0 mph - 0.00 in Snow Light Snow
12:53 AM 15.1 °F 0.5 °F 9.0 °F 77% 30.23 in 2.5 mi East 13.8 mph - 0.00 in Snow Light Snow
1:12 AM 15.8 °F 2.1 °F 10.4 °F 79% 30.10 in 6.0 mi East 12.7 mph - 0.00 in Snow Light Snow
1:53 AM 15.1 °F -0.1 °F 10.0 °F 80% 30.23 in 9.0 mi East 15.0 mph - 0.00 in   Overcast
2:53 AM 14.0 °F 0.5 °F 10.9 °F 88% 30.22 in 10.0 mi East 11.5 mph - N/A   Overcast
3:53 AM 10.0 °F 0.4 °F 5.0 °F 80% 30.24 in 10.0 mi SSW 5.8 mph - N/A   Overcast
4:53 AM 8.1 °F -2.0 °F 3.0 °F 80% 30.25 in 10.0 mi SSW 5.8 mph - N/A   Partly Cloudy
5:53 AM 7.0 °F -3.3 °F 1.9 °F 80% 30.29 in 10.0 mi SSW 5.8 mph - N/A   Mostly Cloudy
6:26 AM 10.4 °F 0.8 °F 3.2 °F 73% 30.13 in 10.0 mi SW 5.8 mph - 0.00 in   Overcast
6:40 AM 10.4 °F 4.0 °F 5.0 °F 79% 30.13 in 8.0 mi SW 3.5 mph - 0.00 in Snow Light Snow
6:53 AM 10.9 °F - 6.1 °F 81% 30.30 in 8.0 mi Calm Calm - 0.00 in Snow Light Snow
7:53 AM 8.1 °F - 3.0 °F 80% 30.32 in 10.0 mi Calm Calm - 0.00 in   Mostly Cloudy
8:53 AM 12.9 °F - 7.0 °F 77% 30.30 in 10.0 mi Calm Calm - N/A   Clear
9:53 AM 17.1 °F - 9.0 °F 71% 30.28 in 10.0 mi Calm Calm - N/A   Clear
10:53 AM 19.0 °F 12.3 °F 10.0 °F 68% 30.25 in 10.0 mi Variable 4.6 mph - N/A   Clear
11:53 AM 21.0 °F 14.6 °F 10.0 °F 63% 30.19 in 10.0 mi South 4.6 mph - N/A   Clear
12:53 PM 23.0 °F - 9.0 °F 55% 30.16 in 10.0 mi Calm Calm - N/A   Clear
1:53 PM 25.0 °F 20.7 °F 10.0 °F 53% 30.13 in 10.0 mi ENE 3.5 mph - N/A   Clear
3:53 PM 27.0 °F - 10.0 °F 49% 30.15 in 10.0 mi Calm Calm - N/A   Clear
4:53 PM 26.1 °F 19.4 °F 9.0 °F 49% 30.18 in 10.0 mi NNW 5.8 mph - N/A   Scattered Clouds
5:53 PM 21.0 °F 9.3 °F 10.9 °F 65% 30.21 in 10.0 mi NW 11.5 mph - N/A   Partly Cloudy
6:53 PM 19.0 °F 7.5 °F 10.9 °F 71% 30.22 in 10.0 mi WNW 10.4 mph - N/A   Mostly Cloudy
7:53 PM 17.1 °F 5.8 °F 10.0 °F 74% 30.24 in 10.0 mi WNW 9.2 mph - N/A   Scattered Clouds
8:53 PM 15.1 °F 3.3 °F 9.0 °F 77% 30.23 in 10.0 mi NW 9.2 mph - N/A   Clear
9:53 PM 15.1 °F - 9.0 °F 77% 30.22 in 10.0 mi Calm Calm - N/A   Overcast
10:19 PM 12.2 °F 4.3 °F 8.6 °F 85% 30.08 in 10.0 mi West 4.6 mph - N/A   Mostly Cloudy
10:30 PM 12.2 °F 2.9 °F 8.6 °F 85% 30.08 in 10.0 mi WSW 5.8 mph - N/A   Scattered Clouds
10:53 PM 10.9 °F -4.7 °F 5.0 °F 77% 30.23 in 10.0 mi West 13.8 mph - N/A   Clear
11:53 PM 10.0 °F -4.5 °F 5.0 °F 80% 30.22 in 10.0 mi West 11.5 mph - N/A   Mostly Cloudy